This is the latest recevied weather packets stored in our database for station/object N6WDO. If no packets are shown the sender has not sent any weather packets the latest 10 day(s).
| Time | Temp. | Humidity | Pressure | Rain* | Wind** | Luminosity | Snow |
|---|---|---|---|---|---|---|---|
| 1777805106 | 12.78° C | 79% | 1011.5 hPa | 0 mm | - | 0 W/m² | - |
| 1777804803 | 12.78° C | 79% | 1011.6 hPa | 0 mm | - | 0 W/m² | - |
| 1777804501 | 12.78° C | 78% | 1011 hPa | 0 mm | - | 0 W/m² | - |
| 1777804198 | 12.78° C | 78% | 1011.3 hPa | 0 mm | - | 0 W/m² | - |
| 1777803895 | 12.78° C | 78% | 1011.1 hPa | 0 mm | - | 0 W/m² | - |
| 1777803591 | 12.78° C | 81% | 1011.3 hPa | 0 mm | - | 0 W/m² | - |
| 1777803288 | 12.78° C | 80% | 1011.4 hPa | 0 mm | - | 0 W/m² | - |
| 1777802985 | 12.78° C | 77% | 1011.1 hPa | 0 mm | - | 0 W/m² | - |
| 1777802683 | 12.78° C | 80% | 1011.1 hPa | 0 mm | - | 0 W/m² | - |
| 1777802380 | 12.78° C | 79% | 1011.3 hPa | 0 mm | - | 0 W/m² | - |
| 1777802078 | 12.78° C | 81% | 1011.6 hPa | 0 mm | - | 0 W/m² | - |
| 1777801776 | 12.78° C | 79% | 1011.5 hPa | 0 mm | - | 0 W/m² | - |
| 1777801473 | 12.78° C | 77% | 1011.4 hPa | 0 mm | - | 0 W/m² | - |
| 1777801169 | 12.78° C | 79% | 1011.4 hPa | 0 mm | - | 0 W/m² | - |
| 1777800866 | 12.78° C | 77% | 1011.4 hPa | 0 mm | - | 0 W/m² | - |
| 1777800561 | 12.78° C | 77% | 1011.4 hPa | 0 mm | - | 0 W/m² | - |
| 1777800258 | 13.33° C | 77% | 1011.5 hPa | 0 mm | - | 0 W/m² | - |
| 1777799954 | 13.33° C | 70% | 1011.5 hPa | 0 mm | - | 0 W/m² | - |
| 1777799650 | 13.33° C | 72% | 1011.6 hPa | 0 mm | - | 0 W/m² | - |
| 1777799347 | 13.33° C | 74% | 1011.6 hPa | 0 mm | - | 0 W/m² | - |
| 1777799043 | 12.78° C | 76% | 1011.7 hPa | 0 mm | - | 0 W/m² | - |
| 1777798738 | 12.78° C | 76% | 1011.6 hPa | 0 mm | - | 0 W/m² | - |
| 1777798435 | 12.78° C | 77% | 1011.8 hPa | 0 mm | - | 0 W/m² | - |
| 1777798132 | 12.78° C | 75% | 1011.6 hPa | 0 mm | - | 0 W/m² | - |
| 1777797830 | 13.33° C | 73% | 1011.9 hPa | 0 mm | - | 0 W/m² | - |
* Rain latest hour (hover to see other rain measurements)
** Current wind speed in m/s (hover to see current wind gust speed)